Location: 3 Angels Observatory
(30.5437°N, 88.5068°W)
Time: 15:40:16
(UTC-05:00)

Daily predictions for brighter satellites

Satellite Brightness Start Highest point End
(mag) Time Altitude Azimuth Time Altitude Azimuth Time Altitude Azimuth
DEBRIS 3.2 20:12:47 10° WSW 20:15:11 60° NW 20:20:30 10° NE
Cosmos 923 Rocket 4.1 20:13:15 10° S 20:18:29 61° ESE 20:23:44 10° NNE
Cosmos 1500 3.3 20:15:53 10° N 20:19:33 51° E 20:23:12 10° SSE
NOSS 3-2 (C) 4.3 20:11:48 10° NNW 20:19:37 77° WSW 20:27:52 10° SSE
Tiangong 2 3.5 20:18:26 10° W 20:21:06 24° NNW 20:23:46 10° NNE
HJ-1C 4.3 20:20:33 10° S 20:23:52 51° W 20:27:09 10° NNW
Resurs 01 Rocket 1.6 20:21:04 10° SSE 20:25:29 77° ENE 20:29:56 10° N
CENTAUR R/B 3.6 20:22:14 10° NNW 20:30:01 48° NE 20:37:39 12° SE
Cosmos 1455 Rocket 3.1 20:26:30 10° N 20:30:47 60° E 20:35:02 10° SSE
Meteor 1-29 3.6 20:34:39 10° NNE 20:37:44 33° E 20:40:48 10° SSE
COSMOS 2406 3.3 20:32:56 10° SSW 20:38:41 87° WNW 20:44:25 10° NNE
ALOS 4.2 20:35:32 10° SSW 20:39:34 29° W 20:43:37 10° NW
Cosmos 2082 Rocket 4.0 20:41:51 11° E 20:41:51 11° E 20:42:50 10° E
Meteor 1-13 Rocket 4.3 20:39:58 10° S 20:45:54 77° E 20:51:49 10° N
ASTRO E2 2.6 20:43:00 10° W 20:47:00 83° S 20:49:55 18° ESE
CZ-4B DEB 3.7 20:48:37 21° ESE 20:49:46 28° ENE 20:52:22 10° NNE
Cosmos 2112 Rocket 3.9 20:45:49 10° SSW 20:51:02 81° ESE 20:56:15 10° NNE
Cosmos 1975 3.3 20:47:18 10° NNW 20:51:20 64° W 20:55:22 10° S
Cosmos 1743 2.9 20:48:21 10° N 20:52:10 53° E 20:54:59 17° SSE
Cosmos 1238 Rocket 4.4 20:46:34 10° SSE 20:52:55 48° E 20:59:14 10° NNE
Cosmos 1346 2.9 20:52:13 10° S 20:54:57 77° W 20:57:43 10° N
Aureole 3 Rocket 3.8 20:47:59 10° S 20:55:04 75° E 21:00:03 10° N
ISS -0.9 20:52:57 10° W 20:55:31 21° NW 20:58:06 10° NNE
SL-08 ROCKET BODY 4.4 20:50:43 10° N 20:56:54 72° E 21:03:03 10° SSE
ASTEX 1 4.2 20:55:06 19° SE 20:57:50 33° E 21:02:12 10° NNE
Spot 2 Rocket 4.3 20:55:00 10° S 20:59:53 51° W 21:04:47 10° NNW
OAO 2 Rocket 4.0 20:55:32 10° WNW 21:00:19 50° N 21:05:08 10° ENE
Helios 1A 2.9 20:58:50 17° SSE 21:02:03 74° ENE 21:06:15 10° N
SJ-11-01 4.3 20:58:57 18° SSE 21:02:22 62° ENE 21:07:00 10° N
SAR-Lupe-4 3.7 21:01:12 24° SE 21:03:06 57° ENE 21:06:38 10° N
SL-27 R/B 2.8 21:00:21 10° SSW 21:03:59 71° WNW 21:07:38 10° N
GPS 2-14 Rocket1 4.3 21:01:47 10° SW 21:04:22 17° S 21:04:24 17° S
Cosmos 1939 Rocket 2.7 21:04:17 23° SSE 21:06:34 67° ENE 21:10:24 10° N
YAOGAN 6 3.2 21:06:34 30° ESE 21:07:28 35° ENE 21:10:41 10° N
Cosmos 1680 Rocket 4.5 21:08:35 10° SW 21:13:38 49° WNW 21:18:40 10° N
Okean 1-7 Rocket 3.5 21:11:05 17° S 21:14:26 67° E 21:18:53 10° NNE
Cosmos 1666 2.5 21:11:03 10° N 21:14:46 68° E 21:16:14 34° SSE
Meteor 2-9 Rocket 4.4 21:10:49 10° N 21:16:14 55° E 21:19:13 27° SSE
Cosmos 1833 Rocket 3.8 21:19:03 24° E 21:19:03 24° E 21:23:11 10° NE
Meteor 2-13 Rocket 4.4 21:13:05 10° N 21:19:10 84° E 21:23:47 18° S
SAR-Lupe-1 3.9 21:18:05 36° SSE 21:19:26 83° ENE 21:23:02 10° N
CZ-3B Rocket 3.5 21:16:24 10° SW 21:20:04 28° SSE 21:21:32 25° SE
DNEPR-1 R/B 3.8 21:16:51 10° NNW 21:21:08 59° ENE 21:22:55 35° SE
Cosmos 2327 Rocket 4.4 21:15:41 10° N 21:21:56 84° E 21:26:38 19° S
Envisat 3.3 21:17:49 14° S 21:22:04 64° WSW 21:27:08 10° NNW
Intercosmos 24 4.5 21:19:40 10° NNE 21:22:54 33° E 21:22:54 33° E
Cosmos 1437 Rocket 3.9 21:22:09 10° NNE 21:25:17 27° ENE 21:25:17 27° ENE
USA 186 4.4 21:23:23 10° SW 21:25:40 18° W 21:27:56 10° NW
Meteor 2-4 Rocket 4.0 21:20:49 10° SSW 21:26:21 69° W 21:32:07 10° N
Cosmos 1656 Rocket 4.0 21:21:21 10° NNW 21:26:44 61° WSW 21:30:21 21° S
Helios 1B rocket 4.3 21:26:37 10° N 21:30:17 31° WNW 21:33:56 10° SW
COSMOS 2455 4.3 21:25:40 10° NW 21:30:50 31° WSW 21:35:59 10° SSW
Cosmos 1606 Rocket 4.3 21:29:21 10° NNE 21:33:15 33° E 21:33:15 33° E
Aurora 2 Rocket 4.4 21:26:55 10° W 21:34:13 53° S 21:38:55 30° SE
Hubble Space Telescope 2.7 21:33:01 10° SW 21:34:23 17° SSW 21:34:23 17° SSW
Cosmos 1025 Rocket 3.2 21:36:04 23° SSW 21:38:40 67° W 21:42:55 10° N
Cosmos 405 2.8 21:36:49 10° N 21:40:22 89° E 21:40:27 85° SSE
Cosmos 1515 4.1 21:40:58 47° ENE 21:40:58 47° ENE 21:44:07 10° NNE
COSMOS 2487 3.9 21:43:45 27° NE 21:43:45 27° NE 21:45:37 10° NNE
Cosmos 1726 Rocket 4.3 21:39:02 10° NNE 21:42:37 35° ENE 21:42:37 35° ENE
CZ-3A R/B 2.9 21:40:54 10° WSW 21:46:16 31° WNW 21:48:25 10° N
GENESIS II 4.2 21:42:33 10° NNW 21:46:28 70° WSW 21:46:42 68° SW
Cosmos 2181 Rocket 4.0 21:49:25 40° SSE 21:51:44 65° E 21:57:59 10° NNE
SPOT 1/Viking Rocket 4.3 21:51:40 34° ENE 21:51:53 34° ENE 21:56:30 10° N
YAOGAN 11 4.3 21:52:10 51° ENE 21:52:10 51° ENE 21:56:13 10° N
Okean 2 4.0 21:54:02 36° SW 21:55:22 53° W 21:59:22 10° N
Cosmos 2058 Rocket 4.0 21:53:30 10° NNE 21:56:51 35° NE 21:56:51 35° NE
ARGOS 3.2 21:58:32 55° ESE 21:59:17 61° ENE 22:04:37 10° N
ERS-1 Rocket 3.2 22:01:27 45° SSW 22:02:48 63° WSW 22:07:46 10° NNW
Cosmos 1371 Rocket 3.9 21:57:39 10° NNW 22:02:58 88° WSW 22:03:45 66° S
Cosmos 1295 Rocket 4.5 21:59:26 10° N 22:05:35 61° E 22:06:29 55° ESE
NOAA 11 4.2 22:05:25 54° S 22:06:41 78° WSW 22:12:08 10° NNW
Terra 3.6 22:07:56 19° NE 22:07:56 19° NE 22:10:26 10° NNE
Nimbus 7 Rocket 4.3 22:01:58 10° NNE 22:08:03 80° ESE 22:09:46 50° S
SPOT 5 2.8 22:09:29 64° NNE 22:09:29 64° NNE 22:13:17 10° N
H-2A R/B 4.1 22:15:12 19° NE 22:15:12 19° NE 22:17:20 10° NNE
MetOp-B 4.3 22:18:17 56° SW 22:19:06 64° WSW 22:24:25 10° NNW
CENTAUR R/B 4.2 22:13:21 10° NW 22:20:36 35° WSW 22:24:51 22° SSW
Cosmos 962 Rocket 4.4 22:14:25 10° N 22:20:38 79° W 22:21:52 59° SSW
Cosmos 2082 Rocket 2.3 22:23:35 49° SW 22:25:05 72° WNW 22:30:46 10° NNE
MOS 1-B Rocket 4.3 22:26:27 47° SW 22:27:41 56° W 22:33:43 10° NNW
Cosmos 2278 3.7 22:25:47 10° NNW 22:31:16 75° NE 22:31:16 75° NE
SL-8 Rocket 3.8 22:32:02 10° N 22:38:20 85° E 22:38:28 84° ESE
H-2A R/B 2.3 22:40:27 62° NNW 22:40:27 62° NNW 22:44:36 10° NNW
Cosmos 2366 rocket 4.0 22:38:00 10° N 22:43:33 64° NE 22:43:33 64° NE
Mugunghwa Rocket 4.4 22:36:40 10° WSW 22:44:09 63° SSW 22:44:09 63° SSW
OAO 2 Rocket 4.1 22:40:26 10° WNW 22:44:05 48° NW 22:44:05 48° NW
Cosmos 2228 4.4 22:43:37 10° NNW 22:46:19 36° NW 22:46:19 36° NW
Cosmos 2369 3.9 22:45:36 10° NNW 22:50:41 65° WNW 22:50:41 65° WNW
Cosmos 1697 Rocket 3.4 22:46:33 10° N 22:50:57 46° NNE 22:50:57 46° NNE
Cosmos 1656 4.1 22:53:47 10° NNW 22:58:04 57° NNW 22:58:04 57° NNW
Cosmos 1833 Rocket 4.0 23:00:38 28° WSW 23:02:27 35° WNW 23:07:34 10° N
Timation 2 Rocket 4.5 23:08:53 52° W 23:09:33 55° WNW 23:15:39 10° N
Cosmos 1980 Rocket 3.4 23:34:39 10° NNW 23:38:08 39° NNW 23:38:08 39° NNW
Terra 4.1 23:46:49 20° NW 23:46:49 20° NW 23:48:41 10° NW
Cosmos 2322 Rocket 3.9 23:45:47 10° N 23:48:59 26° NNE 23:48:59 26° NNE
USA 267 3.6 23:47:07 10° NNE 23:52:59 59° NNW 23:52:59 59° NNW
